Reno, NV

3:42 AM PDT on June 25, 2017 (GMT -0700)
Reno-Tahoe International

Weather History for KRNO - November, 2013

Change the Weather History Date:

Wednesday, November 6, 2013

  Actual Average Record
Temperature  
Mean Temperature 46 °F 46 °F  
Max Temperature 61 °F 59 °F 75 °F (1991)
Min Temperature 30 °F 33 °F 9 °F (1961)
Degree Days  
Heating Degree Days 19 19  
Month to date heating degree days 122 108  
Since 1 July heating degree days 623 544  
Cooling Degree Days 0 0  
Month to date cooling degree days 0 0  
Year to date cooling degree days 1174 839  
Moisture  
Dew Point 23 °F    
Average Humidity 43    
Maximum Humidity 63    
Minimum Humidity 23    
Precipitation  
Precipitation 0.00 in 0.02 in 0.42 in (1917)
Month to date precipitation 0.00 0.13  
Year to date precipitation 3.12 5.68  
Snow  
Snow 0.00 in 0.10 in T in (2011)
Month to date snowfall 0.0 0.4  
Since 1 July snowfall T 0.8  
Since 1 September snowfall 0.0 0.8  
Snow Depth 0.00 in    
Sea Level Pressure  
Sea Level Pressure 30.32 in    
Wind  
Wind Speed 1 mph (West)    
Max Wind Speed 6 mph    
Max Gust Speed 12 mph    
Visibility 10 miles    
Events      
T = Trace of Precipitation, MM = Missing Value Source: NWS Daily Summary

Daily Weather History Graph

Daily Weather History Graph

Search for Another Location

Airport or City:

Trip Planner

Search our weather history database for the weather conditions in past years. The results will help you decide how hot, cold, wet, or windy it might be!

Date:

Astronomy

Nov. 06, 2013 Rise Set
Actual Time 6:33 AM PST 4:51 PM PST
Civil Twilight 6:05 AM PST 5:19 PM PST
Nautical Twilight 5:33 AM PST 5:51 PM PST
Astronomical Twilight 5:01 AM PST 6:23 PM PST
Moon 9:52 AM PST (11/6) 8:01 PM PST (11/6)
Length of Visible Light 11h 14m
Length of Day
10h 18m
Waxing Crescent, 14% of the Moon is Illuminated
Nov 6
Waxing Crescent
Nov 9
First Quarter
Nov 17
Full
Nov 25
Last Quarter
Dec 2
New

Hourly Weather History & Observations

Time (PST) Temp. Dew Point Humidity Pressure Visibility Wind Dir Wind Speed Gust Speed Precip Events Conditions
12:55 AM 35.1 °F 19.9 °F 54% 30.33 in 10.0 mi Calm Calm - N/A   Clear
1:55 AM 35.1 °F 19.9 °F 54% 30.32 in 10.0 mi Calm Calm - N/A   Clear
2:55 AM 32.0 °F 19.0 °F 59% 30.34 in 10.0 mi Calm Calm - N/A   Clear
3:55 AM 30.9 °F 19.0 °F 61% 30.35 in 10.0 mi Calm Calm - N/A   Partly Cloudy
4:55 AM 30.9 °F 19.0 °F 61% 30.37 in 10.0 mi Calm Calm - N/A   Scattered Clouds
5:55 AM 32.0 °F 19.0 °F 59% 30.38 in 10.0 mi Calm Calm - N/A   Scattered Clouds
6:55 AM 30.9 °F 19.0 °F 61% 30.40 in 10.0 mi Calm Calm - N/A   Mostly Cloudy
7:55 AM 35.1 °F 21.9 °F 59% 30.40 in 10.0 mi Calm Calm - N/A   Mostly Cloudy
8:55 AM 41.0 °F 23.0 °F 49% 30.40 in 9.0 mi Calm Calm - N/A   Mostly Cloudy
9:55 AM 46.0 °F 23.0 °F 40% 30.38 in 10.0 mi Calm Calm - N/A   Mostly Cloudy
10:55 AM 50.0 °F 23.0 °F 35% 30.35 in 10.0 mi Calm Calm - N/A   Mostly Cloudy
11:55 AM 55.0 °F 21.9 °F 28% 30.33 in 10.0 mi Calm Calm - N/A   Mostly Cloudy
12:55 PM 57.0 °F 21.9 °F 26% 30.30 in 10.0 mi Calm Calm - N/A   Mostly Cloudy
1:55 PM 61.0 °F 23.0 °F 23% 30.28 in 10.0 mi Calm Calm - 0.00 in   Mostly Cloudy
2:55 PM 60.1 °F 24.1 °F 25% 30.27 in 10.0 mi Calm Calm - N/A   Mostly Cloudy
3:55 PM 61.0 °F 24.1 °F 24% 30.25 in 10.0 mi Calm Calm - N/A   Mostly Cloudy
4:55 PM 57.9 °F 23.0 °F 26% 30.26 in 10.0 mi Calm Calm - N/A   Mostly Cloudy
5:55 PM 52.0 °F 24.1 °F 34% 30.29 in 10.0 mi SSW 4.6 mph - N/A   Mostly Cloudy
6:55 PM 52.0 °F 26.1 °F 37% 30.30 in 10.0 mi West 3.5 mph - N/A   Mostly Cloudy
7:55 PM 48.9 °F 26.1 °F 41% 30.30 in 10.0 mi WNW 4.6 mph - N/A   Mostly Cloudy
8:55 PM 46.9 °F 26.1 °F 44% 30.30 in 10.0 mi Calm Calm - N/A   Mostly Cloudy
9:55 PM 42.1 °F 24.1 °F 49% 30.31 in 10.0 mi Calm Calm - N/A   Mostly Cloudy
10:55 PM 42.1 °F 25.0 °F 51% 30.29 in 10.0 mi Calm Calm - N/A   Mostly Cloudy
11:55 PM 45.0 °F 27.0 °F 49% 30.25 in 10.0 mi Calm Calm - N/A   Mostly Cloudy